Simultaneous Nadir Overpasses (SNOs) Predictions

Prediction of SNOs near US between AQUA and NPP Satellite Orbit:

Table of predicted SNOs near US for the next 10.0 days since TLE Epoch: 11/17/2016
Index Date (AQUA) Time (AQUA) AQUA Lat,Lon Date (NPP) Time (NPP) NPP Lat,Lon Distance(km) Time Diff (sec)
1 11/18/2016 18:16:32 49.98, -80.20 11/18/2016 18:11:08 49.68, -81.80 119.57 324
2 11/18/2016 19:55:25 49.98,-104.92 11/18/2016 19:52:36 49.57,-107.12 164.83 169
3 11/18/2016 21:30:34 36.62,-124.99 11/18/2016 21:30:14 36.13,-127.61 241.55 20
4 11/21/2016 09:22:36 25.50,-112.95 11/21/2016 09:15:47 25.59,-113.43 50.07 409
5 11/24/2016 06:29:56 46.41, -65.03 11/24/2016 06:31:07 46.82, -67.11 165.34 71
6 11/24/2016 08:07:50 49.92, -88.35 11/24/2016 08:11:34 50.44, -90.93 192.86 224
7 11/24/2016 09:46:43
